Overview Statistics Trail Chart Weather Telemetry Raw packets
 

This is the latest recevied weather packets stored in our database for station/object NO9B. If no packets are shown the sender has not sent any weather packets the latest 10 day(s).

<< 45 46 47 48 49 50 51 >>
Time Temp. Humidity Pressure Rain* Wind** Luminosity Snow
1788357204 25.56° C 78% 1016 hPa 0 mm - 37 W/m² -
1788356902 25.56° C 79% 1015.8 hPa 0 mm - 74 W/m² -
1788356598 25.56° C 78% 1015.7 hPa 0 mm - 56 W/m² -
1788356294 25.56° C 78% 1015.9 hPa 0 mm - 65 W/m² -
1788355993 25.56° C 80% 1016 hPa 0 mm - 99 W/m² -
1788355688 25.56° C 84% 1015.9 hPa 0 mm - 80 W/m² -
1788355384 25° C 84% 1015.9 hPa 0 mm - 75 W/m² -
1788355079 25° C 85% 1016.1 hPa 0 mm - 42 W/m² -
1788354775 24.44° C 87% 1016.3 hPa 0 mm - 27 W/m² -
1788354475 24.44° C 87% 1016.2 hPa 0 mm - 19 W/m² -
1788354171 24.44° C 86% 1016.1 hPa 0 mm - 24 W/m² -
1788353866 24.44° C 90% 1016.2 hPa 0 mm - 20 W/m² -
1788353562 24.44° C 88% 1016.1 hPa 0 mm - 19 W/m² -
1788353258 24.44° C 92% 1016.4 hPa 0 mm - 20 W/m² -
1788352953 24.44° C 89% 1016.2 hPa 0 mm - 21 W/m² -
1788352648 24.44° C 92% 1016.4 hPa 0 mm - 22 W/m² -
1788352345 24.44° C 90% 1016.4 hPa 0 mm - 23 W/m² -
1788352043 24.44° C 93% 1016.6 hPa 0 mm - 24 W/m² -
1788351740 24.44° C 91% 1016.4 hPa 0 mm - 23 W/m² -
1788351439 24.44° C 92% 1016.5 hPa 0 mm - 23 W/m² -
1788351134 23.89° C 95% 1016.3 hPa 0 mm - 23 W/m² -
1788350830 23.89° C 97% 1016.2 hPa 0 mm - 14 W/m² -
1788350527 23.89° C 98% 1016.4 hPa 0 mm - 10 W/m² -
1788350226 23.89° C 98% 1016 hPa 0 mm - 9 W/m² -
1788349922 23.89° C 98% 1016.3 hPa 0 mm - 8 W/m² -

* Rain latest hour (hover to see other rain measurements)
** Current wind speed in m/s (hover to see current wind gust speed)